Location: Jodlow
(50.1500°N, 16.7500°E)
Time: 00:53:41
(UTC+02:00)

DIWATA 2B (PO-101) - Visible Passes

Search period start: 01 April 2023 00:00
Search period end: 11 April 2023 00:00
Orbit: 581 x 596 km, 98.0° (Epoch: 31 March)

Date Brightness Start Highest point End Pass type
(mag) Time Alt. Az. Time Alt. Az. Time Alt. Az.
01 Apr ? 02:10:02 21° NE 02:10:02 21° NE 02:12:15 10° N visible
01 Apr ? 03:46:32 22° NW 03:46:32 22° NW 03:48:10 10° NNW visible
02 Apr ? 02:17:25 24° NE 02:17:25 24° NE 02:19:50 10° N visible
02 Apr ? 03:53:54 21° NW 03:53:54 21° NW 03:55:32 10° NNW visible
03 Apr ? 02:24:46 27° NE 02:24:46 27° NE 02:27:24 10° N visible
03 Apr ? 04:01:16 20° NW 04:01:16 20° NW 04:02:53 10° NNW visible
04 Apr ? 02:32:08 31° NE 02:32:08 31° NE 02:34:56 10° N visible
04 Apr ? 04:08:37 19° NW 04:08:37 19° NW 04:10:11 10° NW visible
05 Apr ? 02:39:29 36° NE 02:39:29 36° NE 02:42:27 10° N visible
05 Apr ? 04:15:59 17° WNW 04:15:59 17° WNW 04:17:28 10° NW visible
06 Apr ? 02:46:50 41° NNE 02:46:50 41° NNE 02:49:58 10° N visible
06 Apr ? 04:23:19 16° WNW 04:23:19 16° WNW 04:24:41 10° NW visible
07 Apr ? 02:54:11 47° NNE 02:54:11 47° NNE 02:57:26 10° N visible
07 Apr ? 04:30:40 14° WNW 04:30:40 14° WNW 04:31:50 10° NW visible
08 Apr ? 03:01:31 54° NNE 03:01:31 54° NNE 03:04:53 10° N visible
08 Apr ? 04:38:00 12° WNW 04:38:00 12° WNW 04:38:53 10° WNW visible
09 Apr ? 01:32:22 11° ENE 01:33:25 12° NE 01:34:50 10° NE visible
09 Apr ? 03:08:51 61° N 03:08:51 61° N 03:12:20 10° NNW visible
09 Apr ? 04:45:20 11° WNW 04:45:20 11° WNW 04:45:45 10° WNW visible
10 Apr ? 01:39:42 12° ENE 01:40:44 13° ENE 01:42:43 10° NNE visible
10 Apr ? 03:16:11 65° NNW 03:16:11 65° NNW 03:19:44 10° NNW visible
